Regional Weather Roundup
Issued by NWS

Home | Current Version | Previous Version | Text Only | Print | Product List | Glossary On
Versions: 1 2 3 4 5 6 7 8 9 10 11 12 13 14 15 16 17 18 19 20 21 22 23 24 25 26 27 28 29 30 31 32 33 34 35 36 37 38 39 40 41 42 43 44 45 46 47 48 49 50
000
ASUS45 KCYS 041610
RWRWY

WYOMING REGIONAL WEATHER ROUNDUP
NATIONAL WEATHER SERVICE CHEYENNE WY
1000 AM MDT MON MAY 04 2015

NOTE:  "FAIR" INDICATES FEW OR NO CLOUDS BELOW 12,000 FEET
WITH NO SIGNIFICANT WEATHER AND/OR OBSTRUCTIONS TO VISIBILITY.

WYZ001-041700-
YELLOWSTONE NATIONAL PARK

CITY           SKY/WX    TMP DP  RH WIND       PRES   REMARKS
LK YELLOWSTONE   N/A     43  35  73 CALM      30.15S
W YELLOWSTONE  NOT AVBL

$$
WYZ002>013-054>058-071-098>099-041700-
NORTHERN WYOMING

CITY           SKY/WX    TMP DP  RH WIND       PRES   REMARKS
JACKSON        SUNNY     45  39  81 CALM      30.11F
CODY           FAIR      57  41  54 S10       30.03F
GREYBULL       FAIR      62  42  47 VRB3      30.00F
WORLAND        FAIR      61  46  57 VRB5      30.01F
SHERIDAN       FAIR      60  45  57 SE13      30.02F
BUFFALO        PTSUNNY   54  43  66 SE14      30.07S
GILLETTE       FAIR      53  39  59 S26G35    30.09R
HULETT         CLOUDY    50  45  81 E9G20     30.16R
NEWCASTLE      FAIR      46  34  61 SE21G26   30.17R

$$
WYZ014>020-022>026-101>103-041700-
CENTRAL WYOMING

CITY           SKY/WX    TMP DP  RH WIND       PRES   REMARKS
BIG PINEY      FAIR      50  39  66 CALM      30.12F
PINEDALE       FAIR      46  36  66 CALM      30.13S
DUBOIS         FAIR      50  34  53 CALM      30.09F
LANDER         FAIR      55  42  61 E3        30.05F
RIVERTON       CLOUDY    53  43  68 E5        30.08R
CASPER         CLOUDY    52  46  80 CALM      30.08R
DOUGLAS        PTSUNNY   54  42  64 S23G31    30.10R

$$
WYZ021-027>030-104>119-041700-
SOUTHERN WYOMING

CITY           SKY/WX    TMP DP  RH WIND       PRES   REMARKS
EVANSTON       FAIR      54  40  59 E8        30.09F
KEMMERER       FAIR      50  41  71 S5        30.12S
FORT BRIDGER   SUNNY     52  41  66 CALM      30.14S
ROCK SPRINGS   FAIR      51  39  63 CALM      30.10S
DIXON          FAIR      56  41  56 CALM      30.12S
RAWLINS        FAIR      54  40  59 CALM      30.11F
SARATOGA       PTSUNNY   50  41  71 SE5       30.13S
LARAMIE        CLOUDY    47  41  80 SE20      30.13R
CHEYENNE       CLOUDY    48  39  71 S10       30.15R
TORRINGTON     CLOUDY    49  35  58 E13       30.16R
PINE BLUFFS    CLOUDY    50  36  57 SE14      30.16S

$$



USA.gov is the U.S. government's official web portal to all federal, state and local government web resources and services.